Wind_Speed
27 27 26 26 26 27 28 29 29 29 29 29 31 31 33 34 35 36 37 38 39 40 41 42 42 42 43 44 43 44 46 46 46 46 47 47 47 48 49 50 50 50 51
28 27 27 27 27 28 28 29 29 30 30 31 31 31 32 34 34 35 37 38 38 39 41 42 42 42 43 43 43 44 45 46 47 47 48 49 49 50 51 52 52 53 54
29 29 28 28 28 29 29 29 30 30 30 31 31 30 30 31 32 34 35 36 37 39 40 41 42 42 42 42 43 44 45 46 47 48 49 50 51 51 52 53 54 55 56
30 30 30 29 29 29 29 29 30 30 29 30 31 30 30 30 31 32 33 35 36 38 38 39 41 42 41 42 43 44 44 46 47 49 49 50 50 51 52 53 54 55 56
30 30 30 30 30 29 29 28 28 28 29 29 30 30 30 29 29 30 32 33 34 36 38 39 40 42 42 43 44 45 46 46 48 48 49 49 50 51 51 52 53 54 54
31 31 30 30 29 29 29 29 28 28 28 28 28 29 29 29 29 29 30 32 34 35 36 38 39 40 41 43 44 46 46 47 48 48 49 49 50 50 51 52 53 53 53
31 30 30 30 30 30 29 29 28 29 29 29 29 29 30 30 30 30 31 32 34 35 36 38 39 41 41 42 43 45 46 47 48 48 48 49 49 50 50 50 51 51 52
31 31 31 31 31 31 31 30 30 29 29 29 30 30 30 30 31 32 32 33 34 35 37 37 39 40 41 42 43 44 44 45 45 47 47 47 48 49 50 50 51 51 51
32 32 32 32 32 32 32 32 31 31 31 31 31 31 30 31 31 32 33 34 35 36 37 38 39 40 41 42 42 42 42 43 44 45 46 46 47 48 49 50 49 49 49
32 32 33 33 34 34 34 33 33 33 32 32 32 31 31 32 33 33 34 35 35 36 37 39 40 40 41 41 42 42 42 42 43 43 44 44 45 46 47 48 48 47 48
33 34 34 34 34 34 34 33 33 32 32 32 32 32 32 33 33 35 35 35 36 37 37 38 38 39 40 40 41 42 41 41 42 42 42 43 44 45 45 46 46 46 46
34 34 35 35 34 34 34 33 32 32 32 31 31 32 32 33 35 36 37 37 37 37 37 37 38 38 39 40 40 41 41 41 41 42 42 43 43 44 44 44 44 45 44
35 35 35 35 34 34 34 33 32 32 32 32 33 33 34 35 36 37 38 38 38 38 38 38 38 38 39 39 40 40 41 41 41 41 42 43 43 43 43 43 43 43 43
37 36 36 35 35 35 34 33 33 33 33 34 34 34 35 35 36 36 37 37 37 37 37 37 37 37 38 38 38 39 40 40 40 41 41 42 42 42 42 42 42 41 42
37 36 35 34 34 34 33 33 33 33 33 33 34 34 34 34 35 36 35 35 35 35 36 37 36 36 37 37 38 38 38 38 39 40 40 40 40 41 41 40 40 40 40
36 36 35 34 34 34 33 33 33 33 33 33 33 33 32 33 34 33 33 33 34 35 35 35 36 36 36 37 38 37 36 36 37 38 38 39 39 38 39 39 38 38 38
35 35 35 34 34 34 34 33 33 32 33 32 32 32 32 33 33 33 33 33 34 34 34 35 35 36 36 36 36 35 35 35 35 35 36 37 37 37 37 36 36 35 35
34 34 34 34 34 33 33 32 32 32 32 32 32 32 32 33 33 33 33 33 34 34 34 35 35 35 35 35 35 34 34 34 34 34 35 34 34 35 34 34 33 33 33
32 33 33 33 33 33 32 32 32 32 32 32 32 32 33 33 33 33 33 34 34 34 34 35 34 34 34 34 33 33 33 33 33 34 34 34 33 33 33 32 31 31 30
31 31 32 32 33 32 32 32 32 32 32 32 32 32 33 33 34 34 34 35 35 35 35 34 34 33 33 32 32 32 32 33 33 34 34 34 33 32 31 30 29 29 28
31 32 32 32 32 32 32 32 32 31 31 31 32 32 32 33 33 33 34 35 35 35 34 33 33 33 32 32 32 32 32 32 33 33 33 32 31 30 29 28 27 27 26
32 33 33 32 32 32 32 32 31 31 31 31 31 31 31 31 32 32 33 33 33 33 33 33 33 32 32 31 31 31 31 31 31 31 30 29 28 28 27 26 26 26 26
31 32 31 31 31 31 31 31 30 30 30 30 30 30 30 31 31 32 32 32 31 31 31 32 32 31 31 30 30 30 30 30 29 29 28 27 26 25 25 25 25 25 25
30 30 30 30 30 30 30 29 29 29 29 30 30 30 30 30 31 31 31 31 31 31 31 30 30 29 29 29 29 28 28 28 27 26 26 25 25 24 24 24 24 24 23
29 29 29 29 29 29 29 29 29 29 29 29 29 30 30 30 30 30 30 29 29 29 29 29 28 28 28 28 28 27 27 26 26 25 25 24 24 23 23 23 23 22 22
28 28 28 28 28 27 27 27 28 28 28 29 29 29 30 30 31 30 29 29 29 28 28 27 27 27 27 27 27 26 25 25 24 23 23 22 22 22 22 22 21 21 20
Wind_Direction
275 277 278 280 281 281 280 280 279 278 276 274 274 273 268 266 264 262 261 260 260 260 260 258 259 259 259 261 260 261 262 263 264 266 266 267 268 268 269 269 269 270 270
275 276 276 278 281 281 281 280 279 278 276 275 275 273 269 268 267 265 264 263 263 263 263 260 260 261 262 262 262 262 263 264 266 267 268 268 269 269 269 270 270 271 271
275 275 275 277 280 281 281 280 280 280 278 277 276 274 272 270 268 267 265 264 264 264 264 264 263 262 262 263 264 264 265 266 268 268 269 269 270 270 271 271 271 271 272
275 274 275 277 280 281 281 281 281 280 279 277 275 275 273 271 269 267 266 265 265 265 265 265 265 264 264 265 266 267 267 268 269 270 270 271 271 271 272 272 272 273 274
276 275 275 277 279 281 281 281 281 280 280 278 276 275 274 274 272 270 268 268 267 266 267 267 266 266 267 268 268 268 269 270 271 271 271 271 272 272 273 273 274 274 274
276 276 276 277 278 280 280 281 282 283 283 281 279 276 274 274 273 271 271 271 271 269 268 268 269 270 270 270 270 270 271 272 273 273 272 273 273 274 274 275 275 275 275
277 276 276 277 277 280 281 280 281 283 283 282 281 278 274 273 272 272 274 275 274 272 272 272 273 273 273 273 273 273 273 273 274 275 275 275 275 275 275 275 275 275 275
275 275 275 276 277 279 280 280 281 282 283 283 281 279 276 275 274 275 275 276 276 275 275 276 276 275 274 275 275 275 274 275 275 276 276 276 275 275 276 276 276 276 276
273 274 274 276 277 278 279 280 281 282 283 282 280 278 278 277 276 276 276 277 277 278 279 278 279 278 276 276 276 276 277 276 276 277 278 278 278 278 278 278 277 276 276
272 273 274 275 276 278 279 279 280 280 280 279 278 279 279 277 277 277 277 278 278 280 281 281 280 279 277 276 277 277 277 277 278 278 279 280 281 281 280 279 278 278 278
271 272 274 275 276 277 279 279 279 279 279 279 279 279 278 277 277 278 279 280 281 282 283 283 281 279 278 278 278 277 278 278 279 280 280 280 281 282 282 281 280 279 280
271 272 274 274 274 275 278 279 279 280 279 279 279 278 279 279 280 279 281 282 283 284 284 283 282 282 280 280 280 279 279 280 280 281 281 281 282 283 283 282 281 281 281
270 272 273 273 274 275 278 278 279 278 278 279 279 280 280 280 281 282 283 283 283 284 285 285 284 283 282 282 282 282 281 281 281 282 283 283 284 284 283 283 283 282 282
269 270 271 272 274 275 275 276 277 278 279 279 281 281 281 281 282 284 284 283 283 284 285 285 285 285 284 284 284 284 283 282 282 282 283 284 284 284 283 283 283 282 282
268 270 271 272 273 274 274 274 276 277 278 280 281 281 282 283 283 285 285 284 283 283 284 284 285 286 285 284 286 286 284 283 282 283 283 283 284 284 284 283 283 283 283
268 269 270 272 273 273 273 273 275 277 278 279 280 281 282 284 285 286 286 286 285 285 285 285 286 286 286 286 287 286 285 284 284 284 285 285 285 285 285 284 283 283 283
268 269 270 271 271 271 273 274 275 275 277 279 280 281 282 285 287 287 287 286 286 286 286 287 287 288 288 289 289 288 287 286 287 287 288 288 286 286 287 286 285 284 283
268 270 271 271 271 272 273 273 274 274 276 278 279 281 283 285 286 286 286 285 286 287 288 288 288 288 289 289 289 288 287 287 287 288 289 289 288 288 288 287 285 284 283
269 270 270 271 272 272 272 273 273 274 275 276 277 280 283 284 284 284 284 285 286 287 288 289 289 290 289 289 289 289 288 288 288 290 291 291 290 289 289 288 286 284 284
269 270 270 270 271 272 272 273 273 274 275 276 277 279 281 282 282 282 283 284 285 286 287 288 289 290 290 289 289 289 289 289 289 290 291 290 289 288 288 288 286 285 284
269 270 270 271 272 273 274 274 273 273 274 275 277 278 280 281 281 282 283 284 285 285 286 286 287 289 289 288 288 289 290 290 290 291 291 289 287 286 287 286 285 285 284
270 270 270 270 271 273 274 274 274 275 275 277 278 279 279 280 282 283 284 285 285 285 284 285 286 287 287 286 287 288 289 290 291 291 290 288 287 286 286 285 284 285 285
270 270 270 270 272 273 274 274 275 276 277 278 278 279 279 281 282 283 285 286 285 284 284 285 285 286 285 286 287 288 288 290 291 291 290 288 287 286 286 286 285 286 286
269 269 269 271 272 273 274 275 276 277 278 278 278 280 281 282 283 284 285 285 284 284 284 285 286 285 285 285 286 287 288 290 290 290 290 287 286 286 287 288 288 288 287
267 268 269 271 274 274 274 275 277 277 277 278 280 281 283 284 284 285 284 284 285 284 284 285 285 286 285 285 286 287 287 288 290 291 290 287 286 286 286 287 287 287 286
267 268 269 271 273 274 275 276 277 277 277 278 280 283 285 285 284 284 284 284 285 285 285 285 286 286 286 287 288 288 289 290 291 290 290 288 287 286 286 286 287 287 286
Height
5652 5652 5651 5651 5650 5648 5647 5646 5645 5644 5644 5643 5643 5643 5643 5643 5644 5645 5646 5647 5649 5651 5652 5654 5656 5658 5659 5661 5662 5663 5665 5666 5668 5670 5669 5669 5669 5669 5669 5668 5668 5668 5667
5645 5645 5644 5643 5642 5641 5639 5638 5637 5636 5635 5635 5635 5634 5634 5634 5635 5635 5637 5638 5639 5640 5642 5643 5645 5646 5648 5649 5650 5651 5652 5653 5654 5656 5656 5656 5656 5655 5655 5654 5654 5653 5653
5638 5637 5636 5635 5634 5633 5631 5630 5629 5628 5627 5626 5626 5625 5625 5625 5626 5626 5627 5628 5629 5630 5631 5633 5634 5635 5636 5637 5637 5638 5639 5640 5640 5641 5642 5642 5641 5641 5640 5640 5639 5638 5637
5630 5629 5629 5628 5626 5625 5623 5622 5621 5619 5618 5618 5617 5616 5616 5616 5617 5617 5618 5619 5620 5620 5621 5622 5623 5624 5625 5625 5626 5626 5626 5626 5627 5627 5627 5627 5627 5626 5625 5625 5624 5622 5621
5621 5621 5620 5619 5618 5617 5616 5614 5612 5611 5610 5609 5609 5608 5608 5608 5608 5608 5609 5610 5610 5611 5612 5612 5612 5613 5613 5613 5614 5613 5613 5613 5613 5613 5613 5613 5612 5611 5610 5609 5607 5606 5605
5613 5612 5611 5611 5610 5609 5608 5607 5605 5603 5602 5601 5600 5600 5600 5600 5600 5600 5600 5601 5601 5602 5602 5602 5602 5602 5602 5601 5601 5601 5600 5600 5600 5599 5599 5598 5597 5596 5594 5592 5591 5590 5591
5603 5603 5603 5602 5602 5601 5600 5599 5597 5596 5594 5593 5592 5592 5592 5592 5592 5592 5592 5592 5592 5592 5592 5592 5592 5591 5591 5590 5589 5588 5587 5586 5585 5585 5584 5583 5582 5581 5579 5578 5575 5574 5573
5594 5594 5594 5593 5593 5592 5591 5590 5589 5587 5586 5585 5584 5583 5583 5583 5583 5583 5583 5583 5583 5582 5582 5581 5581 5580 5579 5578 5577 5576 5575 5573 5572 5571 5570 5569 5567 5565 5563 5561 5559 5558 5558
5585 5585 5585 5584 5584 5583 5582 5581 5580 5579 5578 5576 5575 5575 5574 5574 5574 5574 5574 5573 5573 5573 5571 5570 5569 5568 5567 5566 5565 5564 5563 5561 5559 5558 5556 5554 5552 5550 5547 5545 5544 5543 5542
5576 5576 5575 5574 5574 5573 5573 5572 5571 5569 5568 5568 5567 5566 5566 5565 5565 5564 5564 5564 5564 5562 5561 5559 5557 5556 5555 5553 5552 5552 5550 5549 5547 5545 5543 5541 5539 5536 5533 5531 5529 5528 5527
5566 5566 5565 5565 5564 5564 5563 5562 5561 5560 5559 5559 5558 5557 5557 5556 5555 5555 5554 5553 5552 5551 5550 5548 5546 5544 5542 5541 5540 5539 5537 5536 5534 5532 5530 5528 5526 5523 5521 5518 5516 5514 5513
5556 5556 5555 5555 5554 5554 5553 5552 5552 5551 5550 5549 5549 5548 5547 5547 5546 5545 5543 5542 5541 5539 5538 5536 5534 5533 5531 5529 5528 5526 5524 5523 5521 5519 5518 5516 5513 5511 5508 5505 5503 5501 5500
5546 5546 5545 5545 5544 5544 5543 5543 5542 5541 5541 5540 5539 5538 5538 5536 5535 5534 5532 5531 5529 5528 5526 5525 5523 5521 5519 5518 5516 5514 5512 5510 5509 5507 5505 5503 5501 5498 5495 5493 5491 5489 5487
5535 5535 5535 5534 5534 5534 5533 5533 5532 5531 5530 5530 5529 5528 5527 5526 5524 5523 5521 5520 5519 5517 5515 5514 5512 5509 5508 5506 5504 5502 5499 5498 5496 5495 5493 5490 5488 5485 5483 5481 5479 5477 5475
5524 5524 5524 5524 5524 5523 5523 5522 5521 5521 5520 5519 5518 5517 5516 5515 5514 5512 5511 5509 5508 5507 5505 5503 5501 5499 5497 5495 5492 5490 5488 5486 5484 5482 5480 5478 5476 5473 5471 5469 5467 5465 5463
5513 5513 5513 5513 5513 5513 5512 5512 5511 5510 5510 5509 5508 5507 5506 5505 5504 5502 5501 5499 5497 5496 5494 5493 5491 5489 5486 5484 5482 5479 5477 5475 5473 5471 5469 5467 5464 5462 5460 5458 5455 5454 5452
5502 5502 5503 5503 5502 5502 5502 5502 5502 5501 5500 5499 5498 5497 5496 5495 5494 5493 5491 5490 5488 5486 5484 5483 5480 5478 5476 5474 5471 5469 5467 5465 5463 5461 5458 5456 5454 5451 5449 5447 5445 5443 5441
5491 5491 5492 5492 5492 5492 5492 5491 5491 5491 5490 5489 5488 5487 5487 5486 5484 5483 5482 5480 5478 5476 5474 5472 5470 5468 5466 5463 5461 5459 5457 5455 5453 5450 5448 5446 5443 5441 5439 5437 5435 5433 5431
5480 5481 5481 5481 5481 5481 5481 5481 5481 5480 5480 5479 5479 5478 5477 5476 5474 5473 5471 5470 5468 5466 5464 5462 5460 5458 5455 5453 5451 5449 5447 5445 5443 5440 5438 5436 5433 5431 5429 5427 5425 5423 5422
5471 5471 5471 5471 5471 5471 5471 5471 5470 5470 5470 5469 5468 5468 5466 5465 5464 5462 5461 5459 5458 5456 5454 5452 5450 5448 5445 5443 5441 5439 5437 5435 5433 5431 5428 5426 5424 5421 5419 5417 5416 5414 5413
5461 5461 5461 5461 5461 5461 5461 5460 5460 5460 5459 5459 5458 5457 5456 5455 5453 5452 5450 5449 5447 5445 5443 5441 5440 5438 5436 5434 5432 5430 5428 5426 5424 5421 5419 5416 5414 5412 5410 5409 5407 5406 5405
5451 5451 5451 5451 5451 5451 5450 5450 5450 5450 5449 5448 5448 5447 5445 5444 5443 5441 5440 5438 5436 5434 5433 5431 5429 5428 5426 5424 5422 5420 5418 5416 5414 5412 5409 5407 5405 5404 5402 5401 5399 5398 5397
5441 5441 5441 5441 5441 5441 5441 5440 5440 5440 5439 5438 5437 5437 5435 5434 5433 5431 5430 5428 5426 5424 5423 5421 5419 5418 5416 5414 5413 5411 5409 5407 5405 5403 5401 5399 5397 5396 5394 5393 5392 5390 5389
5431 5432 5432 5432 5432 5431 5431 5431 5431 5430 5429 5429 5428 5427 5426 5425 5423 5421 5420 5418 5416 5415 5413 5411 5410 5408 5407 5405 5404 5402 5400 5399 5396 5394 5393 5391 5390 5388 5387 5386 5384 5383 5382
5422 5422 5422 5422 5422 5422 5422 5421 5421 5420 5420 5419 5418 5417 5416 5415 5413 5412 5410 5408 5407 5405 5404 5402 5401 5399 5398 5397 5395 5394 5392 5390 5388 5387 5385 5384 5382 5381 5380 5379 5377 5376 5375
5413 5413 5413 5413 5413 5413 5412 5412 5412 5411 5410 5410 5409 5408 5407 5405 5404 5402 5401 5399 5398 5396 5395 5393 5392 5391 5390 5388 5387 5385 5384 5382 5381 5379 5378 5376 5375 5374 5373 5372 5371 5370 5368